Temp
69 71 72 73 73 73 74 74 74 75 75 76 77 77 76 76 76 76 76 76 77 78 79 79 78 78 78 79 78 77 77 76 76 76 77 78 79 78 77 77 76 77 76
71 70 70 71 72 72 72 73 73 74 75 75 75 76 76 76 76 76 76 76 77 78 79 79 78 78 78 78 77 76 76 76 75 75 76 77 78 77 78 76 76 75 76
68 68 69 70 71 71 71 71 72 72 73 74 75 75 76 76 76 76 76 76 76 77 78 78 78 78 78 77 76 76 75 75 75 75 75 73 74 77 78 75 74 75 75
69 67 68 70 70 70 70 71 71 71 72 72 73 75 75 75 76 76 76 75 76 77 77 78 79 78 77 76 75 75 75 74 74 74 73 73 73 76 77 77 75 75 75
67 67 68 70 70 70 70 70 70 70 70 71 71 72 73 73 75 75 75 75 76 77 77 79 78 77 76 74 74 74 74 74 73 74 73 70 70 76 75 77 75 75 74
68 67 68 69 70 71 71 70 70 70 70 71 71 72 72 73 73 73 73 74 75 76 77 78 77 76 74 73 72 73 73 73 72 72 72 72 71 74 75 76 74 74 73
63 64 66 69 70 70 71 70 70 70 70 71 71 71 72 73 73 73 72 73 74 75 75 76 75 75 73 73 72 72 71 71 72 71 71 71 72 75 76 76 74 73 73
62 62 63 68 68 68 69 70 69 70 70 70 71 71 71 71 72 73 73 73 73 73 74 74 73 73 73 72 72 71 70 70 73 71 71 71 71 77 77 76 74 73 73
61 60 59 60 64 65 67 68 68 70 70 70 70 68 69 69 69 70 72 73 72 71 72 73 73 72 72 72 71 70 69 69 68 70 73 70 73 74 78 76 73 73 72
59 58 58 58 59 59 59 66 68 68 69 68 68 67 66 67 67 68 69 70 72 72 72 71 72 71 71 71 70 69 69 69 68 69 71 70 71 75 78 76 74 73 72
60 57 56 56 57 57 60 63 63 66 66 66 64 65 61 60 61 64 67 68 70 70 71 70 70 70 70 70 70 69 69 69 68 69 71 71 75 77 77 76 74 73 72
57 56 55 54 54 55 62 56 56 61 59 59 59 58 57 58 60 64 63 66 66 67 68 70 69 69 69 70 71 69 70 70 70 71 73 71 73 77 77 75 73 73 72
55 55 55 53 53 52 53 54 54 56 56 57 57 57 56 57 57 58 59 59 60 64 64 65 67 68 68 70 71 70 70 70 71 72 74 70 73 77 77 75 74 73 72
54 54 54 53 52 52 52 52 52 54 55 57 56 56 55 54 53 55 56 57 58 59 59 60 61 62 65 69 69 71 70 70 70 69 70 68 70 76 77 76 74 73 72
53 53 53 53 51 52 51 51 51 51 52 53 54 56 56 55 54 53 54 55 56 57 57 58 59 60 60 61 66 70 71 70 70 73 69 65 68 72 76 77 75 74 73
54 53 53 52 51 52 50 51 50 51 52 53 53 55 55 53 52 52 53 53 54 55 55 56 57 58 59 61 62 67 71 71 70 70 68 66 64 67 72 75 75 75 74
53 53 53 53 51 50 50 50 50 50 52 50 52 51 52 52 50 49 49 49 50 50 50 52 54 56 57 60 60 62 68 70 71 71 69 69 66 65 66 71 73 73 73
52 52 53 56 51 50 50 49 51 50 49 50 49 50 50 50 50 48 47 47 48 48 49 49 49 51 53 55 57 61 62 68 70 72 70 69 68 69 66 67 70 71 72
51 52 51 51 50 50 49 49 49 49 49 48 49 48 48 48 48 46 46 46 47 47 47 47 48 48 47 49 52 56 60 62 66 71 70 70 68 67 68 67 67 67 69
50 51 51 51 50 49 48 47 47 46 46 47 47 47 47 46 46 45 45 47 48 47 47 48 48 48 47 48 52 53 55 61 61 63 67 71 68 68 67 67 66 68 65
49 50 50 49 48 47 45 44 44 43 45 44 46 46 45 44 44 44 44 44 45 44 45 46 47 47 47 48 46 49 53 55 59 61 66 67 68 69 68 67 65 66 66
47 48 48 49 47 46 45 43 42 42 42 43 44 44 44 43 43 45 43 42 42 42 42 43 43 44 46 50 46 46 45 50 55 60 64 65 65 67 68 68 66 66 67
45 45 47 48 46 46 45 43 42 41 41 41 41 41 41 42 43 43 43 41 41 41 40 41 42 42 41 46 49 46 44 45 48 56 60 64 65 66 66 68 68 67 67
43 44 45 47 46 46 43 41 38 37 36 38 39 41 41 42 41 42 41 41 40 40 39 40 43 42 42 40 46 51 50 49 45 48 55 59 63 65 66 66 68 68 68
42 41 42 44 44 44 42 40 37 35 39 41 39 39 40 40 41 41 40 39 38 38 39 40 40 41 42 42 43 44 47 47 49 46 46 53 60 61 64 64 65 67 70
38 39 39 41 41 41 40 38 36 35 38 37 37 36 37 38 38 39 39 37 37 37 37 39 39 40 41 43 44 45 45 45 45 47 49 52 54 59 60 62 61 64 67
MSLP
1017.44 1016.58 1015.92 1015.42 1015.31 1015.09 1014.95 1014.63 1014.36 1014.12 1014.01 1014.07 1013.92 1013.92 1013.89 1013.93 1013.97 1014.04 1014.08 1014.13 1014.28 1014.22 1014.29 1014.36 1014.42 1014.32 1014.27 1014.52 1014.57 1014.70 1014.96 1014.98 1014.94 1015.01 1014.89 1015.12 1015.11 1015.12 1015.10 1015.12 1015.21 1015.27 1015.41
1017.31 1016.80 1016.33 1016.01 1015.84 1015.61 1015.38 1015.02 1014.71 1014.40 1014.39 1014.32 1014.19 1014.09 1014.08 1014.11 1014.09 1014.10 1014.18 1014.20 1014.21 1014.27 1014.31 1014.41 1014.46 1014.38 1014.34 1014.52 1014.65 1014.69 1014.92 1015.00 1014.93 1014.86 1014.97 1015.01 1015.10 1015.14 1015.15 1015.38 1015.38 1015.69 1015.60
1016.86 1016.90 1016.98 1016.71 1016.52 1016.03 1015.65 1015.33 1014.84 1014.90 1014.82 1014.63 1014.45 1014.42 1014.27 1014.22 1014.21 1014.19 1014.30 1014.28 1014.31 1014.25 1014.47 1014.36 1014.42 1014.41 1014.31 1014.57 1014.68 1014.74 1014.91 1014.92 1015.11 1014.79 1015.08 1015.02 1015.18 1015.23 1015.26 1015.45 1015.57 1015.85 1016.02
1017.78 1018.29 1017.97 1017.14 1016.65 1016.27 1015.92 1015.48 1015.26 1015.11 1015.04 1014.94 1014.71 1014.66 1014.60 1014.41 1014.28 1014.21 1014.25 1014.27 1014.32 1014.28 1014.33 1014.27 1014.25 1014.24 1014.29 1014.46 1014.58 1014.72 1014.91 1014.91 1015.01 1014.75 1014.94 1015.13 1015.18 1014.87 1014.85 1015.18 1015.61 1015.80 1015.93
1017.91 1017.99 1017.69 1017.24 1016.92 1016.45 1016.00 1015.71 1015.57 1015.36 1015.21 1015.12 1015.01 1015.01 1014.85 1014.69 1014.41 1014.24 1014.22 1014.20 1014.20 1014.27 1014.17 1014.19 1014.19 1014.15 1014.18 1014.33 1014.40 1014.58 1014.69 1014.77 1014.91 1014.65 1014.51 1015.02 1014.63 1014.73 1014.57 1014.93 1015.34 1015.67 1015.99
1017.71 1017.98 1017.73 1017.21 1016.86 1016.39 1016.11 1015.90 1015.73 1015.56 1015.56 1015.43 1015.37 1015.19 1015.09 1014.86 1014.60 1014.36 1014.19 1014.02 1014.03 1014.05 1014.08 1014.09 1014.00 1013.90 1013.94 1014.12 1014.33 1014.46 1014.48 1014.52 1014.74 1014.44 1014.28 1014.59 1014.45 1014.68 1014.24 1014.69 1015.17 1015.56 1015.86
1017.99 1017.83 1017.32 1017.01 1016.76 1016.45 1016.13 1016.15 1016.07 1016.04 1015.96 1015.81 1015.68 1015.53 1015.21 1015.02 1014.80 1014.47 1014.27 1014.04 1013.89 1013.78 1013.78 1013.76 1013.75 1013.68 1013.68 1013.80 1014.02 1014.25 1014.31 1014.36 1014.58 1014.26 1014.13 1014.24 1014.13 1014.07 1014.31 1014.50 1014.99 1015.36 1015.62
1018.01 1017.68 1017.43 1017.16 1016.81 1016.67 1016.60 1016.44 1016.37 1016.20 1016.12 1016.06 1015.92 1015.75 1015.57 1015.22 1014.93 1014.74 1014.40 1014.05 1013.88 1013.75 1013.68 1013.50 1013.48 1013.40 1013.27 1013.42 1013.69 1013.94 1014.08 1014.24 1014.33 1014.21 1013.94 1013.77 1014.10 1013.76 1014.21 1014.42 1014.77 1015.15 1015.57
1017.83 1017.76 1017.75 1017.62 1017.39 1017.20 1016.99 1016.83 1016.66 1016.53 1016.28 1016.13 1015.97 1016.07 1015.87 1015.61 1015.26 1014.97 1014.65 1014.30 1014.06 1013.78 1013.53 1013.25 1013.17 1013.09 1013.04 1013.09 1013.28 1013.59 1013.76 1013.89 1014.07 1014.10 1013.93 1013.76 1013.63 1013.87 1013.93 1014.61 1014.69 1014.91 1015.34
1017.94 1018.21 1018.20 1018.16 1018.01 1017.82 1017.65 1017.35 1017.08 1016.81 1016.71 1016.54 1016.34 1016.32 1016.17 1015.88 1015.69 1015.35 1014.91 1014.58 1014.22 1013.78 1013.41 1013.12 1012.78 1012.62 1012.60 1012.63 1012.80 1013.10 1013.33 1013.49 1013.67 1013.63 1013.41 1013.63 1013.44 1013.26 1013.58 1013.72 1014.51 1014.69 1015.06
1018.13 1018.67 1018.76 1018.75 1018.63 1018.41 1017.98 1017.84 1017.58 1017.36 1017.16 1016.92 1016.94 1016.73 1016.46 1016.36 1015.98 1015.72 1015.43 1014.96 1014.35 1013.89 1013.40 1012.96 1012.65 1012.38 1012.20 1012.09 1012.09 1012.38 1012.75 1013.04 1013.06 1013.02 1012.75 1012.81 1012.93 1012.77 1012.87 1013.08 1013.81 1014.15 1014.43
1018.69 1019.01 1019.45 1019.38 1019.21 1018.97 1018.56 1018.44 1018.13 1017.87 1017.64 1017.54 1017.36 1017.12 1016.89 1016.63 1016.42 1016.17 1015.81 1015.35 1014.87 1014.24 1013.72 1013.24 1012.73 1012.21 1012.02 1011.84 1011.61 1011.67 1012.05 1012.24 1012.37 1012.34 1012.12 1012.12 1012.27 1012.30 1012.42 1013.04 1013.47 1013.64 1013.93
1019.20 1019.47 1019.80 1019.77 1019.57 1019.34 1019.13 1018.88 1018.71 1018.40 1018.18 1018.02 1017.72 1017.44 1017.26 1017.05 1016.71 1016.41 1016.16 1015.80 1015.40 1014.84 1014.30 1013.76 1013.18 1012.54 1012.00 1011.52 1011.16 1011.10 1011.17 1011.44 1011.48 1011.58 1011.44 1011.44 1011.68 1011.64 1011.93 1012.28 1013.00 1013.34 1013.47
1019.67 1019.91 1020.19 1020.02 1019.90 1019.61 1019.36 1019.13 1018.88 1018.68 1018.53 1018.26 1018.04 1017.85 1017.55 1017.47 1017.22 1016.86 1016.65 1016.28 1015.85 1015.51 1015.01 1014.33 1013.78 1013.16 1012.42 1011.72 1011.05 1010.53 1010.52 1010.59 1010.73 1010.78 1010.72 1010.85 1010.84 1011.07 1011.39 1011.81 1012.36 1012.82 1013.18
1020.04 1020.35 1020.42 1020.27 1020.10 1019.74 1019.47 1019.28 1019.02 1018.83 1018.80 1018.64 1018.24 1018.13 1017.95 1017.75 1017.48 1017.20 1017.04 1016.72 1016.36 1015.85 1015.43 1014.72 1014.11 1013.49 1012.83 1012.04 1011.44 1010.61 1010.05 1009.90 1009.88 1009.89 1009.98 1010.26 1010.14 1010.21 1010.39 1010.86 1011.37 1012.12 1012.60
1020.41 1020.57 1020.63 1020.56 1020.28 1019.97 1019.79 1019.53 1019.26 1018.94 1018.89 1018.70 1018.61 1018.54 1018.30 1018.30 1018.20 1018.01 1017.70 1017.24 1016.79 1016.56 1016.15 1015.42 1014.58 1013.80 1013.01 1012.27 1011.33 1010.53 1009.78 1009.05 1008.94 1008.94 1009.45 1009.71 1009.94 1010.21 1009.96 1009.97 1010.65 1011.30 1011.96
1020.60 1020.76 1020.69 1020.59 1020.47 1020.26 1020.03 1019.81 1019.57 1019.45 1019.16 1019.14 1019.01 1018.85 1018.75 1018.62 1018.56 1018.41 1018.09 1017.84 1017.64 1017.37 1016.77 1015.98 1015.06 1014.07 1013.29 1012.38 1011.50 1010.65 1009.84 1008.84 1008.36 1008.36 1008.41 1008.73 1009.00 1009.16 1009.86 1009.54 1009.84 1010.30 1010.97
1020.78 1020.97 1020.91 1020.71 1020.71 1020.46 1020.41 1020.30 1020.00 1019.76 1019.64 1019.52 1019.43 1019.32 1019.38 1019.08 1018.82 1018.65 1018.41 1018.15 1017.85 1017.47 1016.94 1016.32 1015.51 1014.58 1013.75 1012.88 1011.75 1010.73 1009.87 1008.86 1008.05 1007.69 1007.64 1007.89 1008.05 1008.42 1008.84 1009.32 1009.06 1009.51 1010.21
1020.88 1021.11 1021.20 1021.06 1020.99 1020.77 1020.71 1020.41 1020.36 1020.27 1020.04 1020.08 1019.89 1020.13 1019.87 1019.54 1019.36 1018.98 1018.62 1018.21 1017.79 1017.30 1016.77 1016.26 1015.50 1015.04 1014.34 1013.42 1012.34 1011.03 1009.91 1008.99 1007.88 1007.37 1007.20 1007.21 1007.53 1007.70 1008.14 1008.57 1008.44 1008.65 1009.37
1021.10 1021.33 1021.41 1021.35 1021.25 1021.08 1020.94 1020.88 1020.93 1020.79 1020.64 1020.46 1020.65 1020.60 1020.32 1020.06 1019.64 1019.26 1018.77 1018.27 1017.76 1017.23 1016.71 1016.15 1015.56 1015.02 1014.49 1013.61 1012.40 1011.06 1009.97 1008.60 1007.85 1007.47 1007.02 1006.65 1006.65 1006.79 1007.14 1007.58 1008.10 1008.19 1008.29
1021.55 1021.64 1021.72 1021.75 1021.75 1021.49 1021.37 1021.51 1021.43 1021.49 1021.25 1021.17 1021.03 1020.86 1020.67 1020.33 1019.92 1019.55 1018.98 1018.60 1018.16 1017.59 1016.95 1016.25 1015.48 1014.78 1014.07 1013.60 1012.69 1010.83 1009.18 1008.23 1007.09 1006.72 1006.71 1006.34 1006.07 1006.07 1006.21 1006.72 1007.40 1007.76 1007.98
1021.95 1022.03 1022.11 1022.15 1022.15 1021.96 1021.84 1022.01 1022.12 1022.07 1021.78 1021.61 1021.46 1021.28 1020.95 1020.65 1020.16 1019.50 1019.22 1018.93 1018.50 1017.79 1017.07 1016.41 1015.86 1014.86 1014.10 1013.53 1012.86 1011.77 1009.24 1007.12 1006.08 1005.51 1005.63 1005.72 1005.60 1005.59 1005.62 1005.94 1006.54 1006.87 1007.04
1022.38 1022.47 1022.43 1022.35 1022.30 1022.26 1022.32 1022.35 1022.40 1022.34 1022.16 1021.98 1021.74 1021.51 1021.26 1020.92 1020.47 1019.96 1019.59 1019.15 1018.53 1017.89 1017.09 1016.48 1015.89 1015.22 1014.22 1013.50 1012.90 1012.51 1010.72 1008.62 1007.32 1005.11 1004.65 1004.66 1004.83 1004.96 1005.05 1005.06 1005.38 1005.69 1006.19
1022.86 1022.69 1022.65 1022.63 1022.60 1022.69 1022.57 1022.77 1022.94 1023.01 1023.02 1022.67 1022.39 1022.07 1021.59 1021.24 1020.89 1020.51 1019.94 1019.23 1018.51 1017.81 1017.04 1016.34 1015.61 1015.10 1014.49 1013.56 1012.84 1011.95 1011.51 1010.74 1009.56 1006.80 1005.24 1004.96 1004.37 1004.06 1004.05 1004.21 1004.46 1004.64 1004.92
1023.07 1023.35 1023.22 1023.10 1023.05 1023.09 1023.19 1023.26 1023.41 1023.41 1023.47 1023.02 1022.74 1022.36 1021.94 1021.49 1021.41 1020.78 1020.08 1019.32 1018.51 1017.78 1016.92 1016.13 1015.37 1014.73 1014.15 1013.41 1012.60 1011.96 1011.15 1010.68 1010.04 1008.84 1007.20 1005.57 1004.33 1003.81 1003.63 1003.67 1003.69 1003.76 1004.07
1023.56 1023.84 1023.92 1023.62 1023.60 1023.52 1023.49 1023.75 1023.86 1023.85 1023.71 1023.36 1023.08 1022.54 1022.32 1022.12 1021.68 1021.10 1020.21 1019.35 1018.62 1017.85 1016.91 1016.00 1015.17 1014.34 1013.53 1012.85 1012.10 1011.40 1010.72 1010.06 1009.34 1008.83 1007.50 1006.27 1005.33 1003.85 1003.59 1003.28 1003.36 1003.33 1003.45
Wind_Speed
4 10 16 18 17 17 17 17 16 15 14 15 12 9 8 6 6 5 4 3 3 3 2 1 2 2 1 4 5 6 5 4 4 6 3 4 2 4 4 7 9 9 13
7 9 16 16 16 17 17 17 17 17 15 15 14 14 10 8 6 4 3 2 2 2 3 3 4 4 3 4 4 4 4 5 6 5 5 3 1 2 5 6 8 8 11
12 10 11 15 15 16 17 17 18 17 17 16 15 13 12 11 8 7 6 5 6 6 6 5 5 6 4 4 4 4 3 3 4 6 5 3 2 1 6 9 10 10 10
10 5 6 15 16 17 17 18 18 17 17 16 16 15 14 12 11 9 7 7 8 8 8 8 7 7 7 6 5 5 5 4 3 7 2 2 3 4 3 9 12 12 11
10 6 9 14 15 18 18 18 18 18 18 17 16 15 14 14 13 11 10 7 7 9 10 10 9 8 8 7 7 6 6 6 5 7 3 5 6 5 5 8 12 13 11
7 5 9 13 14 18 19 19 19 19 18 18 17 17 16 15 13 11 9 8 7 8 9 9 9 9 8 8 7 8 8 7 4 6 5 6 5 6 7 13 12 12 12
7 7 7 16 16 15 19 19 17 17 16 17 17 18 19 17 14 12 10 10 9 7 8 9 9 9 8 8 8 8 8 7 3 6 5 3 6 13 14 15 14 14 13
7 7 9 17 19 18 16 18 14 12 12 13 14 18 22 20 17 17 12 10 10 10 10 9 9 9 8 8 9 7 7 6 5 6 6 5 7 13 16 17 18 15 15
7 9 8 10 14 18 15 17 15 14 13 15 16 19 20 20 20 20 20 14 12 11 12 11 10 10 9 9 9 8 8 8 5 5 6 4 7 8 17 18 17 17 16
8 8 9 8 10 10 7 16 17 17 17 17 17 20 18 17 20 19 19 19 20 14 13 13 11 10 11 10 10 10 10 9 6 6 6 4 15 17 16 19 19 19 18
10 10 8 9 9 9 8 10 14 16 18 17 14 18 11 6 9 13 19 22 22 22 18 12 11 12 12 12 12 12 11 4 7 6 6 9 17 19 22 20 20 20 19
9 8 8 8 8 8 8 7 8 9 7 8 10 10 6 7 9 13 15 19 21 22 21 20 15 12 10 6 6 10 6 7 7 7 6 13 18 21 19 20 20 21 21
7 9 8 7 7 7 6 5 3 4 4 5 8 8 6 6 6 6 6 7 8 16 9 13 12 8 7 7 7 6 8 8 7 7 11 13 19 20 21 21 21 21 21
9 7 7 7 6 6 4 4 4 4 4 6 6 7 5 4 5 5 6 7 8 8 11 10 7 10 12 12 10 10 8 7 6 6 9 13 16 21 22 23 23 23 22
9 7 7 7 6 6 6 4 4 4 4 5 6 7 8 8 7 6 5 6 7 8 9 10 10 10 11 11 12 13 10 10 10 8 5 13 18 19 22 23 24 24 24
7 7 6 7 7 7 6 6 5 5 5 6 6 8 9 8 8 9 9 9 9 10 12 11 10 10 10 11 12 12 13 11 10 10 5 5 10 12 19 23 23 25 25
5 6 6 7 7 7 7 6 5 5 6 5 6 7 7 8 8 8 7 7 8 9 12 11 12 11 11 11 12 11 12 12 11 11 8 7 9 16 16 19 23 25 25
7 7 7 7 7 8 7 6 5 5 5 5 5 7 13 12 12 10 8 7 8 9 9 9 10 10 10 11 12 11 10 12 13 12 9 8 8 9 16 22 21 23 25
7 7 7 7 7 7 7 6 6 8 6 5 6 9 12 11 13 10 8 8 10 9 9 9 9 9 10 11 12 12 12 11 10 10 11 11 12 13 11 20 21 21 23
8 7 7 6 7 7 6 5 5 5 5 5 7 8 11 10 12 10 9 11 11 9 9 9 12 10 9 10 12 13 13 12 10 9 10 10 9 13 13 12 12 14 22
8 8 7 7 7 5 4 5 6 7 6 5 8 10 11 11 11 10 8 10 10 10 12 12 11 11 10 8 10 10 10 14 14 10 9 9 10 10 13 12 10 9 9
7 7 7 7 6 5 4 4 3 5 4 5 6 9 11 13 13 11 12 10 11 10 11 11 13 10 8 9 7 9 8 6 5 8 9 8 9 6 9 12 12 13 12
8 7 6 7 6 7 7 4 4 3 4 7 8 9 11 13 13 12 12 12 12 10 9 10 10 12 10 8 10 6 5 4 8 3 7 9 10 8 7 8 13 13 13
6 8 7 7 7 7 7 6 7 6 6 6 8 9 10 12 14 14 13 13 12 10 11 10 10 10 10 10 9 8 11 10 5 8 6 8 8 11 11 9 10 14 16
8 7 7 7 8 8 7 8 5 6 6 8 8 11 12 11 12 13 14 13 12 10 11 12 12 10 9 9 9 9 10 9 12 8 11 12 7 4 7 9 9 11 15
8 8 7 7 8 8 7 8 7 7 10 8 10 9 9 9 9 12 14 13 12 12 12 11 12 13 10 11 11 11 11 8 8 9 9 7 12 9 5 8 8 9 9
Wind_Direction
24 28 34 42 43 46 48 45 40 41 39 29 28 25 10 9 8 10 24 38 28 25 359 119 165 190 288 312 344 349 356 14 12 20 5 50 69 114 131 137 139 135 145
87 48 40 46 47 48 45 44 44 39 38 33 27 21 14 354 342 333 323 302 271 259 279 267 239 231 255 294 318 337 353 357 7 332 347 351 147 162 138 95 110 139 136
52 37 35 49 51 51 49 46 46 43 37 33 29 25 19 15 341 320 304 286 268 261 259 269 244 244 248 273 288 308 313 347 339 301 338 320 324 21 122 133 122 122 140
86 65 47 52 49 48 46 45 43 42 39 35 31 26 19 15 12 355 320 293 286 281 267 261 267 252 251 255 265 284 300 300 302 297 281 110 137 159 152 177 159 158 161
101 80 54 53 51 49 46 43 40 37 34 32 27 20 14 7 5 5 360 332 300 286 280 272 277 277 261 250 249 260 271 282 287 288 256 171 220 170 142 172 168 160 139
89 97 68 51 47 48 43 39 36 33 29 26 21 17 7 0 355 354 347 342 332 307 290 280 276 277 271 258 250 252 260 262 267 267 273 201 236 186 145 168 156 156 154
44 31 30 38 34 42 41 37 34 30 25 21 17 12 7 359 350 346 336 330 318 309 301 291 282 276 268 255 251 254 261 261 255 256 274 215 214 197 196 168 169 166 154
73 45 36 33 25 25 37 27 20 20 21 14 14 18 6 360 4 351 341 327 322 313 298 290 280 272 260 253 251 246 250 258 259 255 253 257 228 192 190 177 170 162 160
74 55 37 29 19 11 19 17 8 15 18 28 18 24 12 2 358 350 347 354 343 332 313 282 271 267 264 258 245 240 240 241 228 259 269 255 250 207 181 184 171 166 170
76 58 42 29 19 5 16 5 19 16 20 20 19 16 6 0 356 346 343 341 334 314 300 291 268 255 250 250 241 234 236 229 230 230 254 231 213 211 200 181 178 173 174
63 49 37 29 20 6 7 6 15 12 14 4 23 7 4 358 346 354 347 343 341 343 325 298 283 266 250 246 239 230 226 220 225 220 234 211 199 201 197 184 183 178 177
57 47 37 27 18 9 3 9 5 5 357 7 5 357 354 359 4 351 348 342 347 341 341 340 307 272 263 257 247 231 229 214 226 237 228 213 204 201 192 184 182 180 180
75 54 31 30 16 15 6 9 0 352 352 15 354 353 359 1 350 353 346 345 339 338 339 334 329 323 282 257 252 234 218 215 222 227 242 213 203 204 186 181 185 186 183
65 53 24 30 19 13 0 7 350 357 12 1 353 351 357 352 350 343 339 339 344 336 328 328 325 324 327 306 260 243 227 216 218 223 236 207 198 197 186 187 186 188 187
63 45 17 29 26 11 10 0 355 5 8 355 352 355 7 356 348 340 340 339 340 330 325 323 327 323 316 304 303 283 245 228 219 226 218 216 201 203 192 190 190 190 190
61 42 25 36 30 10 5 359 357 3 2 356 5 3 0 13 9 2 350 345 343 352 342 329 320 315 312 311 302 298 270 251 239 226 192 190 223 240 208 192 191 191 193
64 47 32 42 25 9 2 6 359 8 10 11 3 355 4 10 10 358 349 351 346 335 332 327 328 325 316 311 305 300 297 262 254 249 223 193 210 227 232 204 193 191 193
62 40 38 40 23 5 9 7 3 11 14 357 358 5 16 4 4 3 354 346 338 329 323 317 318 318 317 319 316 305 295 289 265 251 237 218 204 217 228 225 197 191 193
62 41 35 38 21 15 22 4 12 21 0 9 9 19 5 6 2 353 338 331 328 319 317 311 311 308 318 317 310 309 303 296 292 264 241 234 198 203 209 219 201 189 191
62 41 41 27 20 29 19 7 19 7 3 6 24 11 2 0 352 350 338 338 325 317 311 311 308 305 300 306 307 303 294 284 280 283 267 245 226 199 202 208 212 204 186
56 38 36 25 21 37 14 22 19 7 6 19 12 3 7 353 352 342 348 340 338 330 326 315 302 300 303 304 307 295 291 290 276 262 264 246 236 214 199 199 201 210 202
73 41 37 15 45 34 44 37 17 355 1 23 3 5 -0 359 348 348 349 340 334 324 319 319 319 309 293 296 293 308 301 313 282 240 243 232 234 226 210 197 193 196 197
69 47 36 9 51 46 51 39 24 355 359 5 5 1 0 352 352 341 348 334 325 319 311 307 305 305 308 297 276 272 300 272 346 286 233 221 221 226 225 222 189 192 203
66 43 27 19 41 56 43 44 39 21 0 2 359 359 357 355 349 337 343 332 326 318 312 309 304 299 294 290 296 259 258 277 287 319 336 328 246 228 228 217 211 197 200
60 39 17 30 43 35 48 53 42 28 6 360 0 360 358 355 342 337 344 337 333 326 315 312 306 296 285 277 273 273 270 266 274 271 279 300 291 235 229 217 205 203 204
53 29 8 38 37 32 43 52 42 27 9 8 5 3 1 348 337 344 349 346 340 332 325 320 308 294 285 276 267 266 261 256 270 285 271 275 299 281 238 219 204 200 199